Flag for Greece Weather past 2 weeks in Preveza, Greece

Now
54 °F

Partly cloudy.


Feels Like: 51 °F
Forecast: 47 / 55 °F
Wind: 8 mph from Southwest

Location: Aktion Airport

Current Time: Jan 30, 2015 at 12:33:14 AM

Latest Report: Jan 29, 2015 at 11:50 PM


Visibility: N/A

Pressure: 29.71 "Hg

Humidity: 72%

Dew point: 45 °F

Location of PrevezaLocation

Historic Weather in Preveza — Graph

°F

Preveza temperature yesterday

Maximum temperature yesterday: 57 °F (at 2:20 PM)
Minimum temperature yesterday: 48 °F (at 7:20 PM)
Average temperature yesterday: 53 °F

Past Weeks' High & Low Weather Summary

 TemperatureHumidityPressure
High68 °F (Jan 22, 9:50 PM)94% (Jan 18, 6:50 AM)30.36 "Hg (Jan 18, 6:50 AM)
Low39 °F (Jan 15, 7:50 AM)30% (Jan 22, 9:50 PM)29.59 "Hg (Jan 24, 1:50 PM)
Average53 °F76%29.96 "Hg
* Reported Jan 14 10:50 PM — Jan 29 10:50 PM, Preveza, Weather by CustomWeather, © 2014

Note: Actual official high and low records may vary slightly from our data, if they occured in-between our weather recording intervals... More about our weather records

Advertising

Preveza weather history for previous 24 hours

 ConditionsComfort  
Time TempWeatherWind HumidityBarometerVisibility
10:50 PM
Jan 29
52 °FPassing clouds.5 mph72%29.71 "HgN/A
9:50 PM52 °FPassing clouds.5 mph72%29.71 "HgN/A
8:50 PM50 °FPassing clouds.5 mph76%29.71 "HgN/A
7:50 PM48 °FPassing clouds.No wind82%29.71 "HgN/A
7:20 PM48 °FPassing clouds.No wind82%29.71 "HgN/A
6:50 PM50 °FPassing clouds.No wind76%29.68 "HgN/A
6:20 PM52 °FPassing clouds.No wind67%29.68 "HgN/A
5:50 PM55 °FScattered clouds.No wind59%29.68 "HgN/A
5:20 PM57 °FScattered clouds.6 mph59%29.68 "HgN/A
4:50 PM57 °FScattered clouds.6 mph59%29.68 "HgN/A
4:20 PM57 °FBroken clouds.6 mph55%29.68 "HgN/A
3:50 PM57 °FBroken clouds.6 mph55%29.68 "HgN/A
3:20 PM57 °FBroken clouds.5 mph59%29.65 "HgN/A
2:50 PM57 °FBroken clouds.5 mph59%29.65 "HgN/A
2:20 PM57 °FBroken clouds.3 mph51%29.68 "HgN/A
1:50 PM55 °FBroken clouds.3 mph59%29.68 "HgN/A
1:20 PM55 °FBroken clouds.3 mph59%29.68 "HgN/A
12:50 PM55 °FBroken clouds.3 mph59%29.68 "HgN/A
12:20 PM55 °FBroken clouds.5 mph59%29.71 "HgN/A
11:50 AM55 °FBroken clouds.6 mph59%29.71 "HgN/A
11:20 AM54 °FBroken clouds.8 mph63%29.71 "HgN/A
10:50 AM54 °FBroken clouds.10 mph67%29.68 "HgN/A
10:20 AM54 °FBroken clouds.12 mph58%29.68 "HgN/A
9:50 AM54 °FBroken clouds.12 mph54%29.68 "HgN/A
9:20 AM52 °FBroken clouds.12 mph62%29.68 "HgN/A
8:50 AM52 °FBroken clouds.14 mph62%29.68 "HgN/A
8:20 AM50 °FBroken clouds.10 mph67%29.68 "HgN/A
7:50 AM50 °FBroken clouds.12 mph67%29.68 "HgN/A
7:20 AM50 °FPartly cloudy.9 mph71%29.65 "HgN/A
6:50 AM50 °FPartly cloudy.9 mph71%29.65 "HgN/A
6:20 AM50 °FPartly cloudy.13 mph71%29.65 "HgN/A
5:20 AM50 °FLight rain. Partly cloudy.14 mph71%29.68 "HgN/A
4:50 AM50 °FLight rain. Partly cloudy.14 mph71%29.68 "HgN/A
4:20 AM52 °FLight rain. Partly cloudy.10 mph67%29.68 "HgN/A
2:50 AM50 °FPartly cloudy.13 mph71%29.68 "HgN/A
1:50 AM50 °FPartly cloudy.10 mph71%29.68 "HgN/A
12:50 AM52 °FLight rain. Partly cloudy.10 mph67%29.71 "HgN/A
Weather by CustomWeather, © 2014

See weather overviewHow to use our weather pages